Weather Roundup
Issued by NWS Chicago, IL

Home | Current Version | Previous Version | Text Only | Print | Product List | Glossary On
Versions: 1 2 3 4 5 6 7 8 9 10 11 12 13 14 15 16 17 18 19 20 21 22 23 24 25 26 27 28 29 30 31 32 33 34 35 36 37 38 39 40 41 42 43 44 45 46 47 48 49 50
000
NZUS59 KLOT 201308
HRRLOT

CHICAGO AREA WEATHER ROUNDUP
NATIONAL WEATHER SERVICE CHICAGO/ROMEOVILLE IL
800 AM CDT FRI APR 20 2018

NOTE: "FAIR" INDICATES FEW OR NO CLOUDS BELOW 12,000 FEET WITH NO
SIGNIFICANT WEATHER AND/OR OBSTRUCTIONS TO VISIBILITY.

* THESE STATIONS ARE NOT UNDER NWS QUALITY CONTROL. THEY ALSO MAY NOT
  REPORT WEATHER SUCH AS PRECIPITATION OR FOG.

ILZ005-006-012>014-019>023-201400-
NORTHEAST ILLINOIS

CITY           SKY/WX    TMP DP  RH WIND       PRES   REMARKS
OHARE            N/A     43  24  47 N5        30.49S
MIDWAY           N/A     44  26  49 NE6       30.50S
AURORA           N/A     36  31  82 W5        30.50R
LANSING*         N/A     36  32  85 CALM      30.51R
JOLIET*          N/A     39  30  69 CALM      30.51R
WAUKEGAN         N/A     41  24  51 N5        30.49S
DUPAGE AIRPORT   N/A     39  29  67 N5        30.49S
WHEELING         N/A     42  26  53 N5        30.51S
KANKAKEE*        N/A     37  30  77 CALM      30.52R
MORRIS*          N/A     37  29  74 CALM      30.51R
LEWIS AIRPORT*   N/A     40  29  64 CALM      30.51R
NORTHERLY ISL    N/A     43  23  45 N8          N/A
$$

WIZ051-052-058>065-066-070>072-201400-
SOUTHEAST WISCONSIN

CITY           SKY/WX    TMP DP  RH WIND       PRES   REMARKS
MILWAUKEE        N/A     40  24  53 W3        30.50R
KENOSHA*         N/A     41  26  55 CALM      30.50R
RACINE*          N/A     40  24  53 NW3       30.51R
BURLINGTON       N/A     32  25  73 CALM      30.50R
WAUKESHA       SUNNY     30  21  69 CALM      30.50R
WEST BEND        N/A     32  27  80 CALM      30.49R
$$

INZ001>003-010>013-019-020-201400-
NORTHWEST INDIANA

CITY           SKY/WX    TMP DP  RH WIND       PRES   REMARKS
GARY*          SUNNY     41  30  65 CALM      30.51R
MICHIGAN CITY* NOT AVBL
RENSSELAER*    NOT AVBL
VALPARAISO       N/A     44  31  60 N3        30.50R
$$

LMZ740>746-201400-
SOUTHERN LAKE MICHIGAN

STATION/POSITION TIME  SKY/WX   TEMP WIND        PRES    VSBY
                                AIR  DIR/SP/G
                 (UTC)          (F)  (DEG/KT/KT) (MB)    (MI)
HARRISON CRIB    1240            40  340/  5/  6   N/A
BURNHAM HARBOR   1300            43   10/  6/  9   N/A
CALUMET HARBOR   1248            42  360/  5/  7 1032.1R
BURNS HARBOR     1240            39  330/  2/  3 1033.2R
MICHIGAN CITY    1240            36  210/  1/  2   N/A
$$

ABBREVIATIONS USED IN REMARKS
   TC - TEMPERATURE IN CELSIUS
  WCI - WIND CHILL INDEX
   HX - HEAT INDEX
  VSB - VISIBILITY
$$



USA.gov is the U.S. government's official web portal to all federal, state and local government web resources and services.